Tracking 19920 objects as of 14-Oct-2019
HD Live streaming from Space Station
objects crossing your sky now

COSMOS 1191 DEB

Track COSMOS 1191 DEB now!


NORAD ID: 32994
Int'l Code: 1980-057M
Perigee: 5,145.4 km
Apogee: 35,337.3 km
Inclination: 66.7 °
Period: 720.1 minutes
Semi major axis: 26612 km
RCS: 0.3133 m2 (medium)
Launch date: July 2, 1980
Source: Commonwealth of Independent States (former USSR) (CIS)
Launch site: PLESETSK MISSILE AND SPACE COMPLEX (PKMTR)

Note: This is SATELLITE DEBRIS
aabbcc
Your satellite tracking list
Your tracking list is empty




NASA's NSSDC Master Catalog

Two Line Element Set (TLE):
1 32994U 80057M   11269.13248223 +.00000797 +00000-0 +00000-0 0  9994
2 32994 066.7377 096.2986 5672539 113.2276 009.5994 01.99975851028767
Source of the keplerian elements: AFSPC